Location: Unspecified
(0.0000°N, 0.0000°E)
Time: 05:30:56
(UTC+00:00)

S-56A Canister/Altair - All Passes

Search period start: 29 April 2017 00:00
Search period end: 09 May 2017 00:00
Orbit: 637 x 2497 km, 38.9° (Epoch: 27 April)

Date Brightness Start Highest point End Pass type
(mag) Time Alt. Az. Time Alt. Az. Time Alt. Az.
29 Apr - 02:06:13 10° N 02:15:54 20° NNE 02:25:20 10° ENE visible
29 Apr - 04:09:35 10° NW 04:24:20 57° NE 04:36:18 10° ESE visible
29 Apr - 06:17:04 10° WNW 06:30:38 51° SW 06:40:36 10° SSE daylight
29 Apr - 17:00:30 10° SW 17:05:16 77° SE 17:11:46 10° NE daylight
29 Apr - 19:06:12 10° WNW 19:10:14 18° NNW 19:15:17 10° N visible
30 Apr - 01:33:49 10° N 01:42:18 17° NNE 01:50:50 10° ENE visible
30 Apr - 03:36:27 10° NNW 03:50:57 51° NE 04:03:19 10° ESE visible
30 Apr - 05:43:16 10° WNW 05:57:35 59° SW 06:08:20 10° SSE daylight
30 Apr - 07:57:55 10° WSW 08:03:14 14° SW 08:07:50 10° SSW daylight
30 Apr - 16:28:27 10° SW 16:33:00 58° SE 16:38:51 10° ENE daylight
30 Apr - 18:33:28 10° WNW 18:37:32 19° NNW 18:42:39 10° NNE visible
01 May - 01:01:43 10° N 01:08:41 15° NNE 01:15:51 10° ENE visible
01 May - 03:03:26 10° NNW 03:17:32 46° NE 03:30:11 10° ESE visible
01 May - 05:09:35 10° WNW 05:24:27 68° SW 05:35:57 10° SE visible
01 May - 07:22:28 10° W 07:30:16 18° SW 07:36:45 10° S daylight
01 May - 15:56:27 10° SSW 16:00:45 43° SE 16:05:56 10° ENE daylight
01 May - 18:00:51 10° W 18:04:55 22° NNW 18:10:04 10° NNE daylight
02 May - 00:30:10 10° N 00:35:04 12° NNE 00:40:08 10° NE visible
02 May - 02:30:32 10° NNW 02:44:04 41° NE 02:56:50 10° ESE visible
02 May - 04:36:02 10° NW 04:51:14 76° SW 05:03:26 10° SE visible
02 May - 06:47:34 10° W 06:57:16 23° SW 07:05:09 10° S daylight
02 May - 15:24:30 10° SSW 15:28:30 32° SE 15:33:01 10° ENE daylight
02 May - 17:28:17 10° W 17:32:23 25° NW 17:37:32 10° NNE daylight
03 May - 01:57:45 10° NNW 02:10:36 36° NE 02:23:17 10° E visible
03 May - 04:02:37 10° NW 04:17:56 85° SW 04:30:48 10° SE visible
03 May - 06:12:58 10° W 06:24:12 28° SW 06:33:18 10° SSE daylight
03 May - 14:52:38 10° SSW 14:56:14 24° SE 15:00:04 10° E daylight
03 May - 16:55:47 10° W 16:59:54 30° NW 17:05:02 10° NNE daylight
04 May - 01:25:08 10° NNW 01:37:09 32° NE 01:49:31 10° E visible
04 May - 03:29:20 10° NW 03:44:34 86° NE 03:58:01 10° SE visible
04 May - 05:38:38 10° W 05:51:04 33° SW 06:01:15 10° SSE daylight
04 May - 14:20:50 10° S 14:23:55 18° SE 14:27:02 10° E daylight
04 May - 16:23:20 10° WSW 16:27:31 36° NW 16:32:34 10° NNE daylight
05 May - 00:52:39 10° NNW 01:03:42 28° NE 01:15:28 10° E visible
05 May - 02:56:11 10° NW 03:11:10 78° NE 03:25:06 10° SE visible
05 May - 05:04:32 10° WNW 05:17:52 38° SW 05:29:01 10° SSE visible
05 May - 13:49:11 10° S 13:51:33 14° SE 13:53:50 10° ESE daylight
05 May - 15:50:55 10° WSW 15:55:11 46° NW 16:00:09 10° NE daylight
06 May - 00:20:21 10° N 00:30:17 24° NE 00:41:09 10° E visible
06 May - 02:23:11 10° NW 02:37:45 70° NE 02:52:02 10° ESE visible
06 May - 04:30:38 10° WNW 04:44:37 45° SW 04:56:38 10° SSE visible
06 May - 06:49:09 10° SW 06:51:53 11° SW 06:54:29 10° SSW daylight
06 May - 13:18:02 10° SSE 13:19:06 11° SE 13:20:08 10° SE daylight
06 May - 15:18:31 10° WSW 15:22:55 61° NW 15:27:44 10° NE daylight
06 May - 23:48:16 10° N 23:56:54 20° NE 00:06:29 10° ENE visible
07 May - 01:50:18 10° NW 02:04:20 62° NE 02:18:49 10° ESE visible
07 May - 03:56:55 10° WNW 04:11:17 51° SW 04:24:08 10° SSE visible
07 May - 06:12:17 10° WSW 06:18:36 14° SW 06:24:19 10° S daylight
07 May - 14:46:08 10° SW 14:50:41 83° NW 14:55:20 10° NE daylight
07 May - 23:16:30 10° N 23:23:33 16° NE 23:31:24 10° ENE visible
08 May - 01:17:34 10° NNW 01:30:56 55° NE 01:45:25 10° ESE visible
08 May - 03:23:24 10° WNW 03:37:55 58° SW 03:51:30 10° SE visible
08 May - 05:36:48 10° WSW 05:45:17 18° SW 05:52:53 10° S visible
08 May - 14:13:46 10° SW 14:18:28 74° SE 14:22:57 10° NE daylight
08 May - 22:45:18 10° NNE 22:50:14 13° NE 22:55:37 10° ENE visible
